Regional Weather Roundup
Issued by NWS

Home | Current Version | Previous Version | Text Only | Print | Product List | Glossary Off
Versions: 1 2 3 4 5 6 7 8 9 10 11 12 13 14 15 16 17 18 19 20 21 22 23 24 25 26 27 28 29 30 31 32 33 34 35 36 37 38 39 40 41 42 43 44 45 46 47 48 49 50

000
ASUS43 KDTX 301110
RWRMI
MICHIGAN HOURLY REGIONAL WEATHER ROUNDUP
NATIONAL WEATHER SERVICE DETROIT/PONTIAC MI
700 AM EDT TUE SEP 30 2014

NOTE: "FAIR" INDICATES FEW OR NO CLOUDS BELOW 12,000 FEET WITH NO
SIGNIFICANT WEATHER AND/OR OBSTRUCTION TO VISIBILITY.

MIZ047>049-052>055-059>063-066>070-074>076-081>083-301200-
SOUTHEAST LOWER MICHIGAN

CITY           SKY/WX    TMP DP  RH WIND       PRES   REMARKS
ADRIAN         CLOUDY    50  48  93 N12       29.96R
ALMA           CLOUDY    49  47  93 N5        29.99S
ANN ARBOR      CLOUDY    52  48  86 N10       29.93S
BAD AXE        CLOUDY    49  49 100 N15       29.95R
CARO           DRIZZLE   51  49  95 N8        29.95S
DETROIT CITY   CLOUDY    55  52  89 N8        29.93S
DETROIT        DRIZZLE   53  51  93 NW10      29.93R
FLINT          CLOUDY    51  48  89 NW8       29.97R
GROSSE ILE     CLOUDY    55  52  88 NW13      29.90S
HILLSDALE      CLOUDY    49  49 100 N10       29.96R
HOWELL         CLOUDY    49  48  96 N6        29.95S FOG

CITY           SKY/WX    TMP DP  RH WIND       PRES   REMARKS
JACKSON        CLOUDY    49  47  93 N7        29.96S
LAMBERTVILLE   CLOUDY    54  50  87 NW7       29.94R
LANSING        CLOUDY    49  47  93 NW6       29.98S FOG
LAPEER         CLOUDY    52  50  93 N7        29.95R
MASON          CLOUDY    49  48  95 NW6       29.97R FOG
MONROE         CLOUDY    54  52  94 NW12      29.91R
MT. CLEMENS    LGT RAIN  54  54 100 NW10      29.90R
PONTIAC        CLOUDY    51  49  92 N13       29.93R
PORT HOPE        N/A     53  50  89 CALM      29.92R
PORT HURON     CLOUDY    52  52 100 NW8       29.92R
TRI CITIES     CLOUDY    51  46  83 N13       29.99R
TROY           CLOUDY    54  51  89 N7        29.94R
SAGINAW HB     CLOUDY    50  50 100 NW9       29.97R
$$
MIZ043>046-050>051-056>058-064>065-071>073-077>080-301200-
SOUTHWEST LOWER MICHIGAN

CITY           SKY/WX    TMP DP  RH WIND       PRES   REMARKS
BATTLE CREEK   CLOUDY    48  45  89 NW7       29.99S
BIG RAPIDS     CLOUDY    47  47 100 NW6       30.00S
COLDWATER      CLOUDY    50  48  95 N8        29.97S
FREMONT        CLOUDY    46  45  96 N3        30.01S FOG
HOLLAND        MOCLDY    48  45  89 VRB3      30.03R
GRAND RAPIDS   CLOUDY    49  47  93 N10       30.00S
IONIA          CLOUDY    49  48  98 NW7       29.99S FOG
KALAMAZOO      CLOUDY    48  45  89 N14       30.00S FOG
LUDINGTON      CLOUDY    47  46  96 N6        30.04R FOG
MARSHALL       CLOUDY    47  46  95 NW3       29.98R
MOUNT PLEASANT CLOUDY    49  46  89 NW6       29.99R
MUSKEGON       MOCLDY    48  44  86 N12G17    30.03S
SOUTH HAVEN    PTCLDY    47  45  93 NE5       30.02R
$$
MIZ016>042-301200-
NORTHERN LOWER MICHIGAN

CITY           SKY/WX    TMP DP  RH WIND       PRES   REMARKS
ALPENA         LGT RAIN  46  44  93 N12       30.00S FOG
BEAVER ISLAND  CLOUDY    46  42  87 NE6       30.06S
BELLAIRE       CLOUDY    45  42  91 N3        30.04R
CADILLAC       CLOUDY    43  43 100 N7        30.00S FOG
CHARLEVOIX     CLOUDY    45  43  92 NE6       30.07R
FRANKFORT      CLOUDY    48  44  86 N6        30.04S FOG
GAYLORD        CLOUDY    41  41 100 N6        30.01R
GRAYLING       CLOUDY    45  44  96 N3        30.01S
HARBOR SPRINGS CLOUDY    44  41  91 N6        30.04S
HOUGHTON LAKE  CLOUDY    45  42  89 N9        30.00S
OSCODA         CLOUDY    47  46  97 N10G16    29.96S
PELLSTON       CLOUDY    44  41  89 N3        30.05R
TRAVERSE CITY  DRIZZLE   48  43  82 N9        30.02S
$$
MIZ007>008-015-301200-
EASTERN UPPER MICHIGAN

CITY           SKY/WX    TMP DP  RH WIND       PRES   REMARKS
MACKINAC ISLAN CLOUDY    43  40  89 NE8       30.04S
NEWBERRY       CLOUDY    41  39  92 N8        30.06S
S. S. MARIE    CLOUDY    42  37  82 N3        30.04S
MUNISING         N/A     48  42  80 N13       30.10R
$$
MIZ004>006-011>014-085-301200-
CENTRAL UPPER MICHIGAN

CITY           SKY/WX    TMP DP  RH WIND       PRES   REMARKS
MANISTIQUE     CLOUDY    42  39  89 N8        30.08S
SAWYER-GWINN   CLOUDY    41  37  87 N13       30.10S
$$
MIZ001>003-009>011-084-301200-
WESTERN UPPER MICHIGAN

CITY           SKY/WX    TMP DP  RH WIND       PRES   REMARKS
IRON MOUNTAIN  CLOUDY    40  36  86 NE8       30.10F WCI  34
HOUGHTON       CLOUDY    40  34  79 NE3       30.14S
COPPER HARBOR    N/A     44  37  76 VRB6      30.15S
$$

ABBREVIATIONS USED IN REMARKS
   TC - TEMPERATURE IN CELSIUS
  WCI - WIND CHILL INDEX
   HX - HEAT INDEX
  VSB - VISIBILITY



USA.gov is the U.S. government's official web portal to all federal, state and local government web resources and services.